星链-35723(STARLINK-35723)

导读 | 豆包AI

STARLINK-35723是美国SpaceX公司星链(Starlink)星座的一员,于2025年10月28日发射升空,运行在低地球轨道。作为星链全球卫星互联网项目的组成部分,它将与星座中数千颗卫星协同,为全球尤其是偏远、基础设施匮乏地区提供高速低延迟宽带互联网服务,进一步扩充星链网络规模,强化全球覆盖能力,推动全球互联互通建设。

基本信息
目录编号:
66211
目录名称:
STARLINK-35723
国际标识:
2025-244F
轨道中心:
EARTH
卫星名称:
星链-35723
卫星全名:
星链-35723(STARLINK-35723)
卫星状态:
在轨 (已飞行209 天)
发射日期:
2025-10-28 UTC
国别 :
美国 (US)
星等 :
--
轨道信息
数据来源 国际轨道数据 AOE轨道数据
星历时间 2026-05-25T01:10:12+0800
17小时前
查看轨道信息
2026-05-23T06:00:00+0800
2天前
查看轨道信息
半长轴 6853.347km 6853.39km
偏心率 0.0001274 0.0001125
轨道倾角 53.161° 53.158°
近地点辐角 77.911° 74.862°
升交点赤经 236.481° 244.835°
平近点角 282.203° 90.989°
近地点 474.336km 474.481km
远地点 476.084km 476.025km
周期 94.105分钟 94.106分钟
每日圈数 15.30202 15.301873
详细信息
固有亮度:
5
最大亮度:
2.5
卫星平台:
Starlink V1.0
覆盖范围:
全球
运营商:
太空探索技术公司
运营商所在国:
美国
制造商(研发单位):
太空探索技术公司
制造商所在国:
美国
使用方式:
暂无
卫星简介
Starlink 计划是 SpaceX 推出的全球卫星互联网项目,通过发射低轨道卫星,为全球尤其是偏远地区提供高速、低延迟的互联网服务。自 2019 年起,Starlink 已部署数千颗卫星,旨在缩小全球数字鸿沟,推动互联网普及。该项目还为军事、航空等行业提供通信支持,带来广泛经济效益。
2D轨道图
3D轨道图
轨道高度分析图
轨道倾角分析图
轨道综合分析图
查看轨道综合分析图